Time,TemperatureF,DewpointF,PressureIn,WindDirection,WindDirectionDegrees,WindSpeedMPH,WindSpeedGustMPH,Humidity,HourlyPrecipIn,Conditions,Clouds,dailyrainin,SoftwareType,DateUTC
2013-03-26 00:00:00,29.4,20.5,29.58,ENE,76,0.0,0.0,69,0.00,OVC,,0.00,WeatherDisplay:10.37,2013-03-26 04:00:00,
2013-03-26 00:01:00,29.5,19.5,29.57,ENE,76,1.1,1.1,66,0.00,OVC,,0.00,WeatherDisplay:10.37,2013-03-26 04:01:00,
2013-03-26 00:06:00,30.0,20.0,29.57,ENE,76,0.0,0.0,66,0.00,OVC,,0.00,WeatherDisplay:10.37,2013-03-26 04:06:00,
2013-03-26 00:11:00,29.9,19.9,29.57,ENE,76,0.0,0.0,66,0.00,OVC,,0.00,WeatherDisplay:10.37,2013-03-26 04:11:00,
2013-03-26 00:16:00,29.6,19.6,29.57,ENE,76,0.0,0.0,66,0.00,OVC,,0.00,WeatherDisplay:10.37,2013-03-26 04:16:00,
2013-03-26 00:21:00,29.8,19.8,29.57,ENE,76,0.0,0.0,66,0.00,OVC,,0.00,WeatherDisplay:10.37,2013-03-26 04:21:00,
2013-03-26 00:26:00,30.1,20.1,29.57,ENE,76,1.1,1.1,66,0.00,OVC,,0.00,WeatherDisplay:10.37,2013-03-26 04:26:00,
2013-03-26 00:31:00,30.1,20.1,29.57,ENE,76,3.5,3.5,66,0.00,OVC,,0.00,WeatherDisplay:10.37,2013-03-26 04:31:00,
2013-03-26 00:36:00,30.2,20.2,29.57,ENE,76,2.3,2.3,66,0.00,OVC,,0.00,WeatherDisplay:10.37,2013-03-26 04:36:00,
2013-03-26 00:41:00,30.3,20.3,29.57,ENE,76,2.0,2.0,66,0.00,OVC,,0.00,WeatherDisplay:10.37,2013-03-26 04:41:00,
2013-03-26 00:47:00,30.6,20.6,29.57,ENE,76,1.1,1.1,66,0.00,OVC,,0.00,WeatherDisplay:10.37,2013-03-26 04:47:00,
2013-03-26 00:52:00,31.0,21.0,29.57,ENE,77,4.0,4.0,66,0.00,OVC,,0.00,WeatherDisplay:10.37,2013-03-26 04:52:00,
2013-03-26 00:57:00,31.4,21.3,29.57,ENE,77,3.5,3.5,66,0.00,OVC,,0.00,WeatherDisplay:10.37,2013-03-26 04:57:00,
2013-03-26 01:02:00,31.6,21.5,29.58,ENE,77,1.1,1.1,66,0.00,OVC,,0.00,WeatherDisplay:10.37,2013-03-26 05:02:00,
2013-03-26 01:07:00,31.7,21.6,29.58,ENE,77,1.1,1.1,66,0.00,OVC,,0.00,WeatherDisplay:10.37,2013-03-26 05:07:00,
2013-03-26 01:12:00,31.9,21.8,29.58,ENE,58,3.5,3.5,66,0.00,OVC,,0.00,WeatherDisplay:10.37,2013-03-26 05:12:00,
2013-03-26 01:18:00,31.9,21.8,29.58,NNE,32,3.5,3.5,66,0.00,OVC,,0.00,WeatherDisplay:10.37,2013-03-26 05:18:00,
2013-03-26 01:23:00,31.6,21.5,29.58,NNE,32,3.5,3.5,66,0.00,OVC,,0.00,WeatherDisplay:10.37,2013-03-26 05:23:00,
2013-03-26 01:28:00,31.8,21.7,29.58,NNE,24,4.6,4.6,66,0.00,OVC,,0.00,WeatherDisplay:10.37,2013-03-26 05:28:00,
2013-03-26 01:33:00,31.8,21.7,29.58,NNE,23,5.8,5.8,66,0.00,OVC,,0.00,WeatherDisplay:10.37,2013-03-26 05:33:00,
2013-03-26 01:38:00,31.6,21.5,29.58,NNE,26,3.5,3.5,66,0.00,OVC,,0.00,WeatherDisplay:10.37,2013-03-26 05:38:00,
2013-03-26 01:43:00,31.6,21.5,29.58,NNE,22,4.6,4.6,66,0.00,OVC,,0.00,WeatherDisplay:10.37,2013-03-26 05:43:00,
2013-03-26 01:48:00,31.5,21.4,29.58,NNE,22,3.5,3.5,66,0.00,OVC,,0.00,WeatherDisplay:10.37,2013-03-26 05:48:00,
2013-03-26 01:53:00,31.3,21.3,29.58,NNE,22,1.1,1.1,66,0.00,OVC,,0.00,WeatherDisplay:10.37,2013-03-26 05:53:00,
2013-03-26 01:58:00,31.3,21.3,29.58,NNE,22,2.3,2.3,66,0.00,OVC,,0.00,WeatherDisplay:10.37,2013-03-26 05:58:00,
2013-03-26 02:03:00,31.2,20.1,29.58,NNE,22,1.1,1.1,63,0.00,OVC,,0.00,WeatherDisplay:10.37,2013-03-26 06:03:00,
2013-03-26 02:08:00,31.3,20.2,29.58,NNE,22,2.3,2.3,63,0.00,OVC,,0.00,WeatherDisplay:10.37,2013-03-26 06:08:00,
2013-03-26 02:13:00,31.2,20.1,29.58,NNE,22,1.1,1.1,63,0.00,OVC,,0.00,WeatherDisplay:10.37,2013-03-26 06:13:00,
2013-03-26 02:18:00,31.1,20.0,29.58,NNE,22,1.1,1.1,63,0.00,OVC,,0.00,WeatherDisplay:10.37,2013-03-26 06:18:00,
2013-03-26 02:23:00,31.1,20.0,29.58,NNE,22,1.1,1.1,63,0.00,OVC,,0.00,WeatherDisplay:10.37,2013-03-26 06:23:00,
2013-03-26 02:28:00,31.1,20.0,29.58,NNE,22,0.0,0.0,63,0.00,OVC,,0.00,WeatherDisplay:10.37,2013-03-26 06:28:00,
2013-03-26 02:33:00,31.0,19.9,29.58,NNE,22,0.0,0.0,63,0.00,OVC,,0.00,WeatherDisplay:10.37,2013-03-26 06:33:00,
2013-03-26 02:38:00,31.0,19.9,29.58,NNE,22,0.0,0.0,63,0.00,OVC,,0.00,WeatherDisplay:10.37,2013-03-26 06:38:00,
2013-03-26 02:43:00,31.0,19.9,29.58,NNE,22,0.0,0.0,63,0.00,OVC,,0.00,WeatherDisplay:10.37,2013-03-26 06:43:00,
2013-03-26 02:48:00,31.0,19.9,29.58,NNE,22,0.0,0.0,63,0.00,OVC,,0.00,WeatherDisplay:10.37,2013-03-26 06:48:00,
2013-03-26 02:53:00,31.0,19.9,29.58,NNE,22,0.0,0.0,63,0.00,OVC,,0.00,WeatherDisplay:10.37,2013-03-26 06:53:00,
2013-03-26 02:58:00,31.1,20.0,29.58,NNE,22,0.0,0.0,63,0.00,OVC,,0.00,WeatherDisplay:10.37,2013-03-26 06:58:00,
2013-03-26 03:03:00,31.1,22.1,29.58,NNE,22,0.0,0.0,69,0.00,OVC,,0.00,WeatherDisplay:10.37,2013-03-26 07:03:00,
2013-03-26 03:08:00,31.0,22.0,29.58,NNE,22,0.0,0.0,69,0.00,OVC,,0.00,WeatherDisplay:10.37,2013-03-26 07:08:00,
2013-03-26 03:13:00,30.9,21.9,29.58,NNE,22,0.0,0.0,69,0.00,OVC,,0.00,WeatherDisplay:10.37,2013-03-26 07:13:00,
2013-03-26 03:18:00,30.6,21.6,29.58,NNE,22,0.0,0.0,69,0.00,OVC,,0.00,WeatherDisplay:10.37,2013-03-26 07:18:00,
2013-03-26 03:23:00,30.4,21.4,29.58,NNE,22,0.0,0.0,69,0.00,OVC,,0.00,WeatherDisplay:10.37,2013-03-26 07:23:00,
2013-03-26 03:28:00,30.4,21.4,29.58,NNE,22,0.0,0.0,69,0.00,OVC,,0.00,WeatherDisplay:10.37,2013-03-26 07:28:00,
2013-03-26 03:33:00,30.3,21.3,29.58,NNE,22,0.0,0.0,69,0.00,OVC,,0.00,WeatherDisplay:10.37,2013-03-26 07:33:00,
2013-03-26 03:38:00,30.1,21.2,29.58,NNE,22,0.0,0.0,69,0.00,OVC,,0.00,WeatherDisplay:10.37,2013-03-26 07:38:00,
2013-03-26 03:43:00,30.1,21.2,29.58,NNE,22,0.0,0.0,69,0.00,OVC,,0.00,WeatherDisplay:10.37,2013-03-26 07:43:00,
2013-03-26 03:48:00,30.1,21.2,29.58,NNE,22,0.0,0.0,69,0.00,OVC,,0.00,WeatherDisplay:10.37,2013-03-26 07:48:00,
2013-03-26 03:53:00,30.2,21.2,29.58,NNE,22,0.0,0.0,69,0.00,OVC,,0.00,WeatherDisplay:10.37,2013-03-26 07:53:00,
2013-03-26 03:58:00,30.3,21.3,29.58,NNE,22,0.0,0.0,69,0.00,OVC,,0.00,WeatherDisplay:10.37,2013-03-26 07:58:00,
2013-03-26 04:03:00,29.4,22.5,29.58,NNE,22,0.0,0.0,75,0.00,OVC,,0.00,WeatherDisplay:10.37,2013-03-26 08:03:00,
2013-03-26 04:08:00,29.4,22.5,29.58,NNE,22,0.0,0.0,75,0.00,OVC,,0.00,WeatherDisplay:10.37,2013-03-26 08:08:00,
2013-03-26 04:13:00,29.5,22.6,29.58,NNE,22,0.0,0.0,75,0.00,OVC,,0.00,WeatherDisplay:10.37,2013-03-26 08:13:00,
2013-03-26 04:18:00,29.8,22.8,29.58,NNE,22,0.0,0.0,75,0.00,OVC,,0.00,WeatherDisplay:10.37,2013-03-26 08:18:00,
2013-03-26 04:23:00,30.4,23.4,29.58,NNE,22,0.0,0.0,75,0.00,OVC,,0.00,WeatherDisplay:10.37,2013-03-26 08:23:00,
2013-03-26 04:28:00,30.8,23.8,29.58,NNE,22,1.0,1.0,75,0.00,OVC,,0.00,WeatherDisplay:10.37,2013-03-26 08:28:00,
2013-03-26 04:33:00,31.1,24.1,29.58,NNE,22,1.1,0.0,75,0.00,OVC,,0.00,WeatherDisplay:10.37,2013-03-26 08:33:00,
2013-03-26 04:38:00,31.3,24.3,29.58,NNE,22,0.0,0.0,75,0.00,OVC,,0.00,WeatherDisplay:10.37,2013-03-26 08:38:00,
2013-03-26 04:43:00,31.4,24.4,29.58,NNE,22,1.1,0.0,75,0.00,OVC,,0.00,WeatherDisplay:10.37,2013-03-26 08:43:00,
2013-03-26 04:48:00,31.7,24.7,29.58,NNE,16,3.5,3.5,75,0.00,OVC,,0.00,WeatherDisplay:10.37,2013-03-26 08:48:00,
2013-03-26 04:53:00,31.7,24.7,29.58,North,10,1.1,1.1,75,0.00,OVC,,0.00,WeatherDisplay:10.37,2013-03-26 08:53:00,
2013-03-26 04:58:00,31.8,24.8,29.58,North,10,2.3,2.3,75,0.00,OVC,,0.00,WeatherDisplay:10.37,2013-03-26 08:58:00,
2013-03-26 05:03:00,31.7,24.7,29.59,North,8,1.0,1.0,75,0.00,OVC,,0.00,WeatherDisplay:10.37,2013-03-26 09:03:00,
2013-03-26 05:08:00,31.6,24.6,29.59,North,8,1.1,1.1,75,0.00,OVC,,0.00,WeatherDisplay:10.37,2013-03-26 09:08:00,
2013-03-26 05:13:00,31.4,24.4,29.59,North,8,1.1,1.1,75,0.00,OVC,,0.00,WeatherDisplay:10.37,2013-03-26 09:13:00,
2013-03-26 05:18:00,31.2,24.2,29.59,North,8,2.3,2.3,75,0.00,OVC,,0.00,WeatherDisplay:10.37,2013-03-26 09:18:00,
2013-03-26 05:23:00,31.1,24.1,29.59,North,7,3.5,3.5,75,0.00,OVC,,0.00,WeatherDisplay:10.37,2013-03-26 09:23:00,
2013-03-26 05:28:00,31.0,24.0,29.59,North,7,2.3,2.3,75,0.00,OVC,,0.00,WeatherDisplay:10.37,2013-03-26 09:28:00,
2013-03-26 05:33:00,31.0,24.0,29.59,North,7,1.1,1.1,75,0.00,OVC,,0.00,WeatherDisplay:10.37,2013-03-26 09:33:00,
2013-03-26 05:38:00,31.0,24.0,29.59,North,7,2.3,2.3,75,0.00,OVC,,0.00,WeatherDisplay:10.37,2013-03-26 09:38:00,
2013-03-26 05:43:00,30.9,23.9,29.59,North,7,1.1,1.1,75,0.00,OVC,,0.00,WeatherDisplay:10.37,2013-03-26 09:43:00,
2013-03-26 05:48:00,30.8,23.8,29.59,North,7,1.1,1.1,75,0.00,OVC,,0.00,WeatherDisplay:10.37,2013-03-26 09:48:00,
2013-03-26 05:53:00,30.7,23.7,29.59,North,7,1.1,1.1,75,0.00,OVC,,0.00,WeatherDisplay:10.37,2013-03-26 09:53:00,
2013-03-26 05:58:00,30.7,23.7,29.59,North,7,1.1,1.1,75,0.00,OVC,,0.00,WeatherDisplay:10.37,2013-03-26 09:58:00,
2013-03-26 06:03:00,30.7,22.7,29.60,North,7,0.0,0.0,72,0.00,OVC,,0.00,WeatherDisplay:10.37,2013-03-26 10:03:00,
2013-03-26 06:08:00,30.8,22.8,29.60,North,7,1.1,1.1,72,0.00,OVC,,0.00,WeatherDisplay:10.37,2013-03-26 10:08:00,
2013-03-26 06:13:00,30.8,22.8,29.60,North,7,1.1,0.0,72,0.00,OVC,,0.00,WeatherDisplay:10.37,2013-03-26 10:13:00,
2013-03-26 06:18:00,30.6,22.6,29.60,North,7,1.1,0.0,72,0.00,OVC,,0.00,WeatherDisplay:10.37,2013-03-26 10:18:00,
2013-03-26 06:23:00,30.7,22.7,29.60,North,7,0.0,0.0,72,0.00,OVC,,0.00,WeatherDisplay:10.37,2013-03-26 10:23:00,
2013-03-26 06:28:00,29.8,21.9,29.60,North,7,0.0,0.0,72,0.00,OVC,,0.00,WeatherDisplay:10.37,2013-03-26 10:28:00,
2013-03-26 06:33:00,29.9,22.0,29.60,North,7,0.0,0.0,72,0.00,OVC,,0.00,WeatherDisplay:10.37,2013-03-26 10:33:00,
2013-03-26 06:38:00,29.9,22.0,29.60,North,7,0.0,0.0,72,0.00,OVC,,0.00,WeatherDisplay:10.37,2013-03-26 10:38:00,
2013-03-26 06:43:00,29.3,21.4,29.60,North,7,0.0,0.0,72,0.00,OVC,,0.00,WeatherDisplay:10.37,2013-03-26 10:43:00,
2013-03-26 06:48:00,29.6,21.7,29.60,North,7,0.0,0.0,72,0.00,OVC,,0.00,WeatherDisplay:10.37,2013-03-26 10:48:00,
2013-03-26 06:53:00,29.7,21.8,29.60,North,7,0.0,0.0,72,0.00,OVC,,0.00,WeatherDisplay:10.37,2013-03-26 10:53:00,
2013-03-26 06:58:00,29.9,22.0,29.60,North,7,0.0,0.0,72,0.00,OVC,,0.00,WeatherDisplay:10.37,2013-03-26 10:58:00,
2013-03-26 07:03:00,30.3,23.3,29.62,North,7,0.0,0.0,75,0.00,OVC,,0.00,WeatherDisplay:10.37,2013-03-26 11:03:00,
2013-03-26 07:08:00,30.8,23.8,29.62,North,7,0.0,0.0,75,0.00,OVC,,0.00,WeatherDisplay:10.37,2013-03-26 11:08:00,
2013-03-26 07:13:00,31.2,24.2,29.62,North,7,0.0,0.0,75,0.00,OVC,,0.00,WeatherDisplay:10.37,2013-03-26 11:13:00,
2013-03-26 07:18:00,31.5,24.5,29.62,North,7,0.0,0.0,75,0.00,OVC,,0.00,WeatherDisplay:10.37,2013-03-26 11:18:00,
2013-03-26 07:23:00,31.8,24.8,29.62,North,7,0.0,0.0,75,0.00,OVC,,0.00,WeatherDisplay:10.37,2013-03-26 11:23:00,
2013-03-26 07:28:00,32.7,25.6,29.62,North,7,0.0,0.0,75,0.00,OVC,,0.00,WeatherDisplay:10.37,2013-03-26 11:28:00,
2013-03-26 07:33:00,32.8,25.7,29.62,North,7,0.0,0.0,75,0.00,OVC,,0.00,WeatherDisplay:10.37,2013-03-26 11:33:00,
2013-03-26 07:38:00,33.0,25.9,29.62,North,7,0.0,0.0,75,0.00,OVC,,0.00,WeatherDisplay:10.37,2013-03-26 11:38:00,
2013-03-26 07:43:00,32.5,25.5,29.62,North,7,1.1,1.1,75,0.00,OVC,,0.00,WeatherDisplay:10.37,2013-03-26 11:43:00,
2013-03-26 07:48:00,33.1,26.0,29.62,North,7,2.3,2.3,75,0.00,OVC,,0.00,WeatherDisplay:10.37,2013-03-26 11:48:00,
2013-03-26 07:53:00,33.7,26.6,29.62,North,7,1.1,1.1,75,0.00,OVC,,0.00,WeatherDisplay:10.37,2013-03-26 11:53:00,
2013-03-26 07:58:00,33.7,26.6,29.62,North,9,3.5,3.5,75,0.00,OVC,,0.00,WeatherDisplay:10.37,2013-03-26 11:58:00,
2013-03-26 08:03:00,34.2,26.1,29.64,NNE,28,2.3,2.3,72,0.00,OVC,,0.00,WeatherDisplay:10.37,2013-03-26 12:03:00,
2013-03-26 08:08:00,34.1,26.0,29.64,NE,37,1.1,1.1,72,0.00,OVC,,0.00,WeatherDisplay:10.37,2013-03-26 12:08:00,
2013-03-26 08:13:00,34.3,26.2,29.64,NE,42,1.1,1.1,72,0.00,OVC,,0.00,WeatherDisplay:10.37,2013-03-26 12:13:00,
2013-03-26 08:18:00,34.9,26.8,29.64,ENE,74,3.5,3.5,72,0.00,OVC,,0.00,WeatherDisplay:10.37,2013-03-26 12:18:00,
2013-03-26 08:23:00,35.1,27.0,29.64,East,81,3.5,3.5,72,0.00,OVC,,0.00,WeatherDisplay:10.37,2013-03-26 12:23:00,
2013-03-26 08:28:00,35.5,27.4,29.64,East,81,3.5,3.5,72,0.00,OVC,,0.00,WeatherDisplay:10.37,2013-03-26 12:28:00,
2013-03-26 08:33:00,35.4,27.3,29.64,East,82,4.0,4.0,72,0.00,OVC,,0.00,WeatherDisplay:10.37,2013-03-26 12:33:00,
2013-03-26 08:38:00,35.3,27.2,29.64,ENE,78,5.0,5.0,72,0.00,OVC,,0.00,WeatherDisplay:10.37,2013-03-26 12:38:00,
2013-03-26 08:43:00,35.7,27.6,29.64,ENE,75,3.5,3.5,72,0.00,OVC,,0.00,WeatherDisplay:10.37,2013-03-26 12:43:00,
2013-03-26 08:48:00,36.0,27.8,29.64,ENE,75,3.5,3.5,72,0.00,OVC,,0.00,WeatherDisplay:10.37,2013-03-26 12:48:00,
2013-03-26 08:53:00,36.6,28.4,29.64,ENE,75,2.3,2.3,72,0.00,OVC,,0.00,WeatherDisplay:10.37,2013-03-26 12:53:00,
2013-03-26 08:58:00,36.3,28.1,29.64,ENE,78,4.6,4.6,72,0.00,OVC,,0.00,WeatherDisplay:10.37,2013-03-26 12:58:00,
2013-03-26 09:03:00,35.9,25.6,29.65,ENE,76,4.6,4.6,66,0.00,OVC,,0.00,WeatherDisplay:10.37,2013-03-26 13:03:00,
2013-03-26 09:08:00,36.7,26.4,29.65,East,79,3.5,3.5,66,0.00,OVC,,0.00,WeatherDisplay:10.37,2013-03-26 13:08:00,
2013-03-26 09:13:00,37.4,27.1,29.65,ENE,77,3.5,3.5,66,0.00,OVC,,0.00,WeatherDisplay:10.37,2013-03-26 13:13:00,
2013-03-26 09:18:00,37.8,27.5,29.65,East,80,3.5,3.5,66,0.00,OVC,,0.00,WeatherDisplay:10.37,2013-03-26 13:18:00,
2013-03-26 09:23:00,38.7,28.3,29.65,East,86,3.5,3.5,66,0.00,OVC,,0.00,WeatherDisplay:10.37,2013-03-26 13:23:00,
2013-03-26 09:28:00,38.2,27.8,29.65,ENE,61,4.6,4.6,66,0.00,OVC,,0.00,WeatherDisplay:10.37,2013-03-26 13:28:00,
2013-03-26 09:33:00,39.6,29.2,29.65,ENE,61,2.3,2.3,66,0.00,OVC,,0.00,WeatherDisplay:10.37,2013-03-26 13:33:00,
2013-03-26 09:38:00,36.1,25.8,29.65,NW,307,2.3,2.3,66,0.00,OVC,,0.00,WeatherDisplay:10.37,2013-03-26 13:38:00,
2013-03-26 09:43:00,35.8,25.5,29.65,NW,307,3.5,3.5,66,0.00,OVC,,0.00,WeatherDisplay:10.37,2013-03-26 13:43:00,
2013-03-26 09:48:00,35.5,25.3,29.65,NW,312,2.3,2.3,66,0.00,OVC,,0.00,WeatherDisplay:10.37,2013-03-26 13:48:00,
2013-03-26 09:53:00,35.8,25.5,29.65,NW,312,3.5,3.5,66,0.00,OVC,,0.00,WeatherDisplay:10.37,2013-03-26 13:53:00,
2013-03-26 09:58:00,37.1,26.8,29.65,NW,308,5.0,5.0,66,0.00,OVC,,0.00,WeatherDisplay:10.37,2013-03-26 13:58:00,
2013-03-26 10:03:00,35.5,14.6,29.66,NW,305,2.3,2.3,42,0.00,CLR,,0.00,WeatherDisplay:10.37,2013-03-26 14:03:00,
2013-03-26 10:08:00,36.3,15.4,29.66,North,350,2.3,2.3,42,0.00,CLR,,0.00,WeatherDisplay:10.37,2013-03-26 14:08:00,
2013-03-26 10:13:00,37.9,16.8,29.66,North,6,3.0,3.0,42,0.00,CLR,,0.00,WeatherDisplay:10.37,2013-03-26 14:13:00,
2013-03-26 10:18:00,38.7,17.5,29.66,North,0,6.0,6.0,42,0.00,CLR,,0.00,WeatherDisplay:10.37,2013-03-26 14:18:00,
2013-03-26 10:23:00,39.2,18.0,29.66,NNE,21,3.5,3.5,42,0.00,CLR,,0.00,WeatherDisplay:10.37,2013-03-26 14:23:00,
2013-03-26 10:28:00,37.8,16.7,29.66,NNE,12,5.8,5.8,42,0.00,CLR,,0.00,WeatherDisplay:10.37,2013-03-26 14:28:00,
2013-03-26 10:33:00,39.1,17.9,29.66,North,9,6.9,6.9,42,0.00,CLR,,0.00,WeatherDisplay:10.37,2013-03-26 14:33:00,
2013-03-26 10:38:00,40.3,19.0,29.66,NE,35,3.5,3.5,42,0.00,CLR,,0.00,WeatherDisplay:10.37,2013-03-26 14:38:00,
2013-03-26 10:43:00,41.0,19.6,29.66,NW,314,4.0,4.0,42,0.00,CLR,,0.00,WeatherDisplay:10.37,2013-03-26 14:43:00,
2013-03-26 10:48:00,39.1,17.9,29.66,NNW,346,5.8,5.8,42,0.00,CLR,,0.00,WeatherDisplay:10.37,2013-03-26 14:48:00,
2013-03-26 10:53:00,38.2,17.1,29.66,NW,314,3.5,3.5,42,0.00,CLR,,0.00,WeatherDisplay:10.37,2013-03-26 14:53:00,
2013-03-26 10:58:00,41.7,20.3,29.66,NW,314,1.1,1.1,42,0.00,CLR,,0.00,WeatherDisplay:10.37,2013-03-26 14:58:00,
2013-03-26 11:03:00,41.6,24.3,29.67,NW,314,3.5,3.5,50,0.00,BKN,,0.00,WeatherDisplay:10.37,2013-03-26 15:03:00,
2013-03-26 11:08:00,42.9,25.5,29.67,NW,314,1.1,1.1,50,0.00,BKN,,0.00,WeatherDisplay:10.37,2013-03-26 15:08:00,
2013-03-26 11:13:00,39.9,22.7,29.67,North,0,3.5,3.5,50,0.00,BKN,,0.00,WeatherDisplay:10.37,2013-03-26 15:13:00,
2013-03-26 11:18:00,41.8,24.5,29.67,North,10,2.3,2.3,50,0.00,BKN,,0.00,WeatherDisplay:10.37,2013-03-26 15:18:00,
2013-03-26 11:23:00,41.1,23.9,29.67,North,5,2.3,2.3,50,0.00,BKN,,0.00,WeatherDisplay:10.37,2013-03-26 15:23:00,
2013-03-26 11:28:00,41.1,23.9,29.67,North,349,2.3,2.3,50,0.00,BKN,,0.00,WeatherDisplay:10.37,2013-03-26 15:28:00,
2013-03-26 11:33:00,42.4,25.1,29.67,North,349,2.3,2.3,50,0.00,BKN,,0.00,WeatherDisplay:10.37,2013-03-26 15:33:00,
2013-03-26 11:38:00,42.1,24.8,29.67,NNE,15,4.0,4.0,50,0.00,BKN,,0.00,WeatherDisplay:10.37,2013-03-26 15:38:00,
2013-03-26 11:43:00,41.9,24.6,29.67,NW,312,5.8,5.8,50,0.00,BKN,,0.00,WeatherDisplay:10.37,2013-03-26 15:43:00,
2013-03-26 11:48:00,43.3,25.9,29.67,North,0,0.0,0.3,50,0.00,BKN,,0.00,WeatherDisplay:10.37,2013-03-26 15:48:00,
2013-03-26 11:53:00,41.4,24.1,29.67,NNW,347,4.6,4.6,50,0.00,BKN,,0.00,WeatherDisplay:10.37,2013-03-26 15:53:00,
2013-03-26 11:58:00,40.8,23.6,29.67,NW,321,5.8,5.8,50,0.00,BKN,,0.00,WeatherDisplay:10.37,2013-03-26 15:58:00,
2013-03-26 12:03:00,41.2,18.1,29.67,WNW,282,4.6,4.6,39,0.00,SCT,,0.00,WeatherDisplay:10.37,2013-03-26 16:03:00,
2013-03-26 12:08:00,43.0,19.7,29.67,North,7,3.5,3.5,39,0.00,SCT,,0.00,WeatherDisplay:10.37,2013-03-26 16:08:00,
2013-03-26 12:13:00,41.1,18.0,29.67,NW,306,4.6,4.6,39,0.00,SCT,,0.00,WeatherDisplay:10.37,2013-03-26 16:13:00,
2013-03-26 12:18:00,41.9,18.7,29.67,NNW,328,3.5,3.5,39,0.00,SCT,,0.00,WeatherDisplay:10.37,2013-03-26 16:18:00,
2013-03-26 12:23:00,42.2,19.0,29.67,North,0,2.3,2.3,39,0.00,SCT,,0.00,WeatherDisplay:10.37,2013-03-26 16:23:00,
2013-03-26 12:28:00,41.7,18.5,29.67,NW,309,6.9,6.9,39,0.00,SCT,,0.00,WeatherDisplay:10.37,2013-03-26 16:28:00,
2013-03-26 12:33:00,41.6,18.4,29.67,NW,310,5.8,5.8,39,0.00,SCT,,0.00,WeatherDisplay:10.37,2013-03-26 16:33:00,
2013-03-26 12:38:00,42.6,19.3,29.67,North,0,4.0,4.0,39,0.00,SCT,,0.00,WeatherDisplay:10.37,2013-03-26 16:38:00,
2013-03-26 12:43:00,41.7,18.5,29.67,WNW,302,8.1,8.1,39,0.00,SCT,,0.00,WeatherDisplay:10.37,2013-03-26 16:43:00,
2013-03-26 12:48:00,43.0,19.7,29.67,NNW,329,3.5,3.5,39,0.00,SCT,,0.00,WeatherDisplay:10.37,2013-03-26 16:48:00,
2013-03-26 12:53:00,42.1,18.9,29.67,NW,310,9.2,9.2,39,0.00,SCT,,0.00,WeatherDisplay:10.37,2013-03-26 16:53:00,
2013-03-26 12:58:00,42.1,18.9,29.67,NW,306,5.8,5.8,39,0.00,SCT,,0.00,WeatherDisplay:10.37,2013-03-26 16:58:00,
2013-03-26 13:03:00,42.3,17.2,29.67,NW,308,5.0,5.0,36,0.00,SCT,,0.00,WeatherDisplay:10.37,2013-03-26 17:03:00,
2013-03-26 13:08:00,44.2,18.9,29.67,North,0,3.5,3.5,36,0.00,SCT,,0.00,WeatherDisplay:10.37,2013-03-26 17:08:00,
2013-03-26 13:13:00,44.6,19.3,29.67,WNW,288,8.1,8.1,36,0.00,SCT,,0.00,WeatherDisplay:10.37,2013-03-26 17:13:00,
2013-03-26 13:18:00,43.9,18.6,29.67,North,350,3.5,3.5,36,0.00,SCT,,0.00,WeatherDisplay:10.37,2013-03-26 17:18:00,
2013-03-26 13:23:00,43.8,18.5,29.67,NW,310,5.8,5.8,36,0.00,SCT,,0.00,WeatherDisplay:10.37,2013-03-26 17:23:00,
2013-03-26 13:28:00,41.6,16.6,29.67,WNW,300,3.0,3.0,36,0.00,SCT,,0.00,WeatherDisplay:10.37,2013-03-26 17:28:00,
2013-03-26 13:33:00,42.5,17.4,29.67,WNW,300,3.5,3.5,36,0.00,SCT,,0.00,WeatherDisplay:10.37,2013-03-26 17:33:00,
2013-03-26 13:38:00,43.8,18.5,29.67,NW,308,6.9,6.9,36,0.00,SCT,,0.00,WeatherDisplay:10.37,2013-03-26 17:38:00,
2013-03-26 13:43:00,43.3,18.1,29.67,WNW,291,5.8,5.8,36,0.00,SCT,,0.00,WeatherDisplay:10.37,2013-03-26 17:43:00,
2013-03-26 13:48:00,43.4,18.2,29.67,West,280,5.0,5.0,36,0.00,SCT,,0.00,WeatherDisplay:10.37,2013-03-26 17:48:00,
2013-03-26 13:53:00,42.7,17.6,29.67,WNW,282,4.6,4.6,36,0.00,SCT,,0.00,WeatherDisplay:10.37,2013-03-26 17:53:00,
2013-03-26 13:58:00,43.1,17.9,29.67,NW,310,4.6,4.6,36,0.00,SCT,,0.00,WeatherDisplay:10.37,2013-03-26 17:58:00,
2013-03-26 14:03:00,44.5,16.4,29.66,NW,312,6.9,6.9,32,0.00,CLR,,0.00,WeatherDisplay:10.37,2013-03-26 18:03:00,
2013-03-26 14:08:00,43.7,15.7,29.66,NW,308,3.5,3.5,32,0.00,CLR,,0.00,WeatherDisplay:10.37,2013-03-26 18:08:00,
2013-03-26 14:13:00,45.0,16.9,29.66,WNW,286,3.5,3.5,32,0.00,CLR,,0.00,WeatherDisplay:10.37,2013-03-26 18:13:00,
2013-03-26 14:18:00,45.5,17.3,29.66,North,355,4.0,4.0,32,0.00,CLR,,0.00,WeatherDisplay:10.37,2013-03-26 18:18:00,
2013-03-26 14:23:00,42.8,14.9,29.66,West,281,7.0,7.0,32,0.00,CLR,,0.00,WeatherDisplay:10.37,2013-03-26 18:23:00,
2013-03-26 14:28:00,43.2,15.3,29.66,NW,317,3.5,3.5,32,0.00,CLR,,0.00,WeatherDisplay:10.37,2013-03-26 18:28:00,
2013-03-26 14:33:00,44.2,16.2,29.66,NW,317,2.0,2.0,32,0.00,CLR,,0.00,WeatherDisplay:10.37,2013-03-26 18:33:00,
2013-03-26 14:38:00,45.0,16.9,29.66,NNW,331,3.5,3.5,32,0.00,CLR,,0.00,WeatherDisplay:10.37,2013-03-26 18:38:00,
2013-03-26 14:43:00,43.8,15.8,29.66,WNW,301,4.6,4.6,32,0.00,CLR,,0.00,WeatherDisplay:10.37,2013-03-26 18:43:00,
2013-03-26 14:48:00,44.7,16.6,29.66,WNW,292,1.1,1.1,32,0.00,CLR,,0.00,WeatherDisplay:10.37,2013-03-26 18:48:00,
2013-03-26 14:53:00,43.2,15.3,29.66,North,349,4.6,4.6,32,0.00,CLR,,0.00,WeatherDisplay:10.37,2013-03-26 18:53:00,
2013-03-26 14:58:00,42.2,14.4,29.66,NW,307,8.1,8.1,32,0.00,CLR,,0.00,WeatherDisplay:10.37,2013-03-26 18:58:00,
2013-03-26 15:03:00,44.3,14.0,29.66,NNW,340,3.5,3.5,29,0.00,CLR,,0.00,WeatherDisplay:10.37,2013-03-26 19:03:00,
2013-03-26 15:08:00,44.0,13.7,29.66,NW,315,3.5,3.5,29,0.00,CLR,,0.00,WeatherDisplay:10.37,2013-03-26 19:08:00,
2013-03-26 15:13:00,44.9,14.5,29.66,NW,314,2.0,2.0,29,0.00,CLR,,0.00,WeatherDisplay:10.37,2013-03-26 19:13:00,
2013-03-26 15:18:00,44.2,13.9,29.66,NNW,343,4.6,4.6,29,0.00,CLR,,0.00,WeatherDisplay:10.37,2013-03-26 19:18:00,
2013-03-26 15:23:00,43.7,13.5,29.66,NNW,342,4.6,4.6,29,0.00,CLR,,0.00,WeatherDisplay:10.37,2013-03-26 19:23:00,
2013-03-26 15:28:00,43.3,13.1,29.66,NW,312,3.5,3.5,29,0.00,CLR,,0.00,WeatherDisplay:10.37,2013-03-26 19:28:00,
2013-03-26 15:33:00,43.1,12.9,29.66,WNW,287,5.8,5.8,29,0.00,CLR,,0.00,WeatherDisplay:10.37,2013-03-26 19:33:00,
2013-03-26 15:38:00,44.0,13.7,29.66,NNW,335,2.3,2.3,29,0.00,CLR,,0.00,WeatherDisplay:10.37,2013-03-26 19:38:00,
2013-03-26 15:43:00,43.2,13.0,29.66,NW,321,6.9,6.9,29,0.00,CLR,,0.00,WeatherDisplay:10.37,2013-03-26 19:43:00,
2013-03-26 15:48:00,43.2,13.0,29.66,NW,314,7.0,7.0,29,0.00,CLR,,0.00,WeatherDisplay:10.37,2013-03-26 19:48:00,
2013-03-26 15:53:00,43.5,13.3,29.66,WNW,303,5.8,5.8,29,0.00,CLR,,0.00,WeatherDisplay:10.37,2013-03-26 19:53:00,
2013-03-26 15:58:00,44.0,13.7,29.66,WNW,302,3.5,3.5,29,0.00,CLR,,0.00,WeatherDisplay:10.37,2013-03-26 19:58:00,
2013-03-26 16:03:00,44.1,15.3,29.66,WNW,297,5.0,5.0,31,0.00,FEW,,0.00,WeatherDisplay:10.37,2013-03-26 20:03:00,
2013-03-26 16:08:00,43.9,15.2,29.66,NW,310,4.6,4.6,31,0.00,FEW,,0.00,WeatherDisplay:10.37,2013-03-26 20:08:00,
2013-03-26 16:13:00,43.8,15.1,29.66,NW,315,6.9,6.9,31,0.00,FEW,,0.00,WeatherDisplay:10.37,2013-03-26 20:13:00,
2013-03-26 16:18:00,43.6,14.9,29.66,NW,308,4.6,4.6,31,0.00,FEW,,0.00,WeatherDisplay:10.37,2013-03-26 20:18:00,
2013-03-26 16:23:00,43.2,14.6,29.66,WNW,302,6.9,6.9,31,0.00,FEW,,0.00,WeatherDisplay:10.37,2013-03-26 20:23:00,
2013-03-26 16:28:00,43.4,14.7,29.66,NW,324,6.9,6.9,31,0.00,FEW,,0.00,WeatherDisplay:10.37,2013-03-26 20:28:00,
2013-03-26 16:33:00,43.3,14.6,29.66,West,281,4.6,4.6,31,0.00,FEW,,0.00,WeatherDisplay:10.37,2013-03-26 20:33:00,
2013-03-26 16:38:00,43.4,14.7,29.66,WNW,299,4.6,4.6,31,0.00,FEW,,0.00,WeatherDisplay:10.37,2013-03-26 20:38:00,
2013-03-26 16:43:00,43.5,14.8,29.66,WNW,302,4.6,4.6,31,0.00,FEW,,0.00,WeatherDisplay:10.37,2013-03-26 20:43:00,
2013-03-26 16:48:00,43.7,15.0,29.66,NNW,346,3.0,3.0,31,0.00,FEW,,0.00,WeatherDisplay:10.37,2013-03-26 20:48:00,
2013-03-26 16:53:00,43.4,14.7,29.66,North,349,4.6,4.6,31,0.00,FEW,,0.00,WeatherDisplay:10.37,2013-03-26 20:53:00,
2013-03-26 16:58:00,43.4,14.7,29.66,NW,325,2.3,2.3,31,0.00,FEW,,0.00,WeatherDisplay:10.37,2013-03-26 20:58:00,
2013-03-26 17:03:00,43.0,12.1,29.67,NW,314,4.6,4.6,28,0.00,CLR,,0.00,WeatherDisplay:10.37,2013-03-26 21:03:00,
2013-03-26 17:08:00,43.3,12.3,29.67,NW,312,4.6,4.6,28,0.00,CLR,,0.00,WeatherDisplay:10.37,2013-03-26 21:08:00,
2013-03-26 17:13:00,43.4,12.4,29.67,NW,316,2.3,2.3,28,0.00,CLR,,0.00,WeatherDisplay:10.37,2013-03-26 21:13:00,
2013-03-26 17:18:00,43.2,12.2,29.67,NNW,327,3.5,3.5,28,0.00,CLR,,0.00,WeatherDisplay:10.37,2013-03-26 21:18:00,
2013-03-26 17:23:00,43.3,12.3,29.67,NW,315,3.5,3.5,28,0.00,CLR,,0.00,WeatherDisplay:10.37,2013-03-26 21:23:00,
2013-03-26 17:28:00,43.1,12.2,29.67,NW,316,3.5,3.5,28,0.00,CLR,,0.00,WeatherDisplay:10.37,2013-03-26 21:28:00,
2013-03-26 17:33:00,42.7,11.8,29.67,West,281,6.9,6.9,28,0.00,CLR,,0.00,WeatherDisplay:10.37,2013-03-26 21:33:00,
2013-03-26 17:38:00,42.8,11.9,29.67,WNW,292,8.1,8.1,28,0.00,CLR,,0.00,WeatherDisplay:10.37,2013-03-26 21:38:00,
2013-03-26 17:44:00,43.0,12.1,29.67,NW,319,3.5,3.5,28,0.00,CLR,,0.00,WeatherDisplay:10.37,2013-03-26 21:44:00,
2013-03-26 17:49:00,42.9,12.0,29.67,NNW,332,2.3,0.0,28,0.00,CLR,,0.00,WeatherDisplay:10.37,2013-03-26 21:49:00,
2013-03-26 17:54:00,42.9,12.0,29.67,NNW,336,4.0,4.0,28,0.00,CLR,,0.00,WeatherDisplay:10.37,2013-03-26 21:54:00,
2013-03-26 17:59:00,42.3,11.5,29.67,NW,326,3.5,3.5,28,0.00,CLR,,0.00,WeatherDisplay:10.37,2013-03-26 21:59:00,
2013-03-26 18:04:00,42.4,12.3,29.69,NW,324,2.3,2.3,29,0.00,CLR,,0.00,WeatherDisplay:10.37,2013-03-26 22:04:00,
2013-03-26 18:09:00,42.2,12.2,29.69,NW,304,4.6,4.6,29,0.00,CLR,,0.00,WeatherDisplay:10.37,2013-03-26 22:09:00,
2013-03-26 18:14:00,42.2,12.2,29.69,NW,314,3.5,3.5,29,0.00,CLR,,0.00,WeatherDisplay:10.37,2013-03-26 22:14:00,
2013-03-26 18:19:00,41.9,11.9,29.69,NW,304,3.5,3.5,29,0.00,CLR,,0.00,WeatherDisplay:10.37,2013-03-26 22:19:00,
2013-03-26 18:24:00,41.6,11.6,29.69,WNW,303,4.0,4.0,29,0.00,CLR,,0.00,WeatherDisplay:10.37,2013-03-26 22:24:00,
2013-03-26 18:29:00,41.4,11.5,29.69,NW,309,3.5,3.5,29,0.00,CLR,,0.00,WeatherDisplay:10.37,2013-03-26 22:29:00,
2013-03-26 18:34:00,41.4,11.5,29.69,NW,308,4.6,4.6,29,0.00,CLR,,0.00,WeatherDisplay:10.37,2013-03-26 22:34:00,
2013-03-26 18:39:00,41.2,11.3,29.69,NW,304,4.6,4.6,29,0.00,CLR,,0.00,WeatherDisplay:10.37,2013-03-26 22:39:00,
2013-03-26 18:44:00,41.0,11.1,29.69,NW,308,3.5,3.5,29,0.00,CLR,,0.00,WeatherDisplay:10.37,2013-03-26 22:44:00,
2013-03-26 18:49:00,40.7,10.9,29.69,NW,308,3.5,3.5,29,0.00,CLR,,0.00,WeatherDisplay:10.37,2013-03-26 22:49:00,
2013-03-26 18:54:00,40.6,10.8,29.69,NW,308,3.5,3.5,29,0.00,CLR,,0.00,WeatherDisplay:10.37,2013-03-26 22:54:00,
2013-03-26 18:59:00,40.3,10.5,29.69,NW,308,1.1,1.1,29,0.00,CLR,,0.00,WeatherDisplay:10.37,2013-03-26 22:59:00,
2013-03-26 19:04:00,39.7,10.7,29.71,NW,308,2.3,2.3,30,0.00,CLR,,0.00,WeatherDisplay:10.37,2013-03-26 23:04:00,
2013-03-26 19:09:00,39.7,10.7,29.71,NW,308,3.5,3.5,30,0.00,CLR,,0.00,WeatherDisplay:10.37,2013-03-26 23:09:00,
2013-03-26 19:14:00,39.6,10.7,29.71,NW,308,2.3,2.3,30,0.00,CLR,,0.00,WeatherDisplay:10.37,2013-03-26 23:14:00,
2013-03-26 19:19:00,39.5,10.6,29.71,NW,308,3.5,3.5,30,0.00,CLR,,0.00,WeatherDisplay:10.37,2013-03-26 23:19:00,
2013-03-26 19:24:00,39.2,10.3,29.71,NW,308,2.3,2.3,30,0.00,CLR,,0.00,WeatherDisplay:10.37,2013-03-26 23:24:00,
2013-03-26 19:29:00,38.9,10.1,29.71,NW,308,3.5,3.5,30,0.00,CLR,,0.00,WeatherDisplay:10.37,2013-03-26 23:29:00,
2013-03-26 19:34:00,38.7,9.9,29.71,NW,308,1.1,1.1,30,0.00,CLR,,0.00,WeatherDisplay:10.37,2013-03-26 23:34:00,
2013-03-26 19:39:00,38.7,9.9,29.71,NW,308,1.1,1.1,30,0.00,CLR,,0.00,WeatherDisplay:10.37,2013-03-26 23:39:00,
2013-03-26 19:44:00,38.5,9.7,29.71,NW,308,2.3,2.3,30,0.00,CLR,,0.00,WeatherDisplay:10.37,2013-03-26 23:44:00,
2013-03-26 19:49:00,38.5,9.7,29.71,NW,308,1.1,1.1,30,0.00,CLR,,0.00,WeatherDisplay:10.37,2013-03-26 23:49:00,
2013-03-26 19:54:00,38.2,9.4,29.71,NW,308,1.1,1.1,30,0.00,CLR,,0.00,WeatherDisplay:10.37,2013-03-26 23:54:00,
2013-03-26 19:59:00,38.1,9.4,29.71,NW,308,1.1,1.1,30,0.00,CLR,,0.00,WeatherDisplay:10.37,2013-03-26 23:59:00,
2013-03-26 20:04:00,37.9,13.9,29.73,NW,308,0.0,0.1,37,0.00,CLR,,0.00,WeatherDisplay:10.37,2013-03-27 00:04:00,
2013-03-26 20:09:00,37.7,13.7,29.73,NW,308,1.1,1.1,37,0.00,CLR,,0.00,WeatherDisplay:10.37,2013-03-27 00:09:00,
2013-03-26 20:14:00,37.3,13.4,29.73,NW,308,0.0,0.1,37,0.00,CLR,,0.00,WeatherDisplay:10.37,2013-03-27 00:14:00,
2013-03-26 20:19:00,37.2,13.3,29.73,NW,308,0.0,0.0,37,0.00,CLR,,0.00,WeatherDisplay:10.37,2013-03-27 00:19:00,
2013-03-26 20:24:00,36.9,13.0,29.73,NW,308,1.1,1.1,37,0.00,CLR,,0.00,WeatherDisplay:10.37,2013-03-27 00:24:00,
2013-03-26 20:29:00,37.1,13.2,29.73,NW,308,1.1,1.1,37,0.00,CLR,,0.00,WeatherDisplay:10.37,2013-03-27 00:29:00,
2013-03-26 20:34:00,37.0,13.1,29.73,NW,308,1.1,1.1,37,0.00,CLR,,0.00,WeatherDisplay:10.37,2013-03-27 00:34:00,
2013-03-26 20:39:00,36.5,12.7,29.73,NW,308,0.0,0.0,37,0.00,CLR,,0.00,WeatherDisplay:10.37,2013-03-27 00:39:00,
2013-03-26 20:44:00,34.1,10.5,29.73,NW,308,0.0,0.0,37,0.00,CLR,,0.00,WeatherDisplay:10.37,2013-03-27 00:44:00,
2013-03-26 20:49:00,32.7,9.3,29.73,NW,308,0.0,0.0,37,0.00,CLR,,0.00,WeatherDisplay:10.37,2013-03-27 00:49:00,
2013-03-26 20:54:00,33.2,9.7,29.73,NW,308,0.0,0.0,37,0.00,CLR,,0.00,WeatherDisplay:10.37,2013-03-27 00:54:00,
2013-03-26 20:59:00,33.2,9.7,29.73,NW,308,0.0,0.0,37,0.00,CLR,,0.00,WeatherDisplay:10.37,2013-03-27 00:59:00,
2013-03-26 21:04:00,33.1,12.5,29.75,NW,308,0.0,0.0,42,0.00,CLR,,0.00,WeatherDisplay:10.37,2013-03-27 01:04:00,
2013-03-26 21:09:00,32.0,11.5,29.75,NW,308,0.0,0.0,42,0.00,CLR,,0.00,WeatherDisplay:10.37,2013-03-27 01:09:00,
2013-03-26 21:14:00,31.4,10.9,29.75,NW,308,0.0,0.0,42,0.00,CLR,,0.00,WeatherDisplay:10.37,2013-03-27 01:14:00,
2013-03-26 21:19:00,31.3,10.8,29.75,NW,308,0.0,0.0,42,0.00,CLR,,0.00,WeatherDisplay:10.37,2013-03-27 01:19:00,
2013-03-26 21:24:00,33.0,12.4,29.75,NW,308,1.1,1.1,42,0.00,CLR,,0.00,WeatherDisplay:10.37,2013-03-27 01:24:00,
2013-03-26 21:29:00,34.9,14.1,29.75,NW,308,1.1,1.1,42,0.00,CLR,,0.00,WeatherDisplay:10.37,2013-03-27 01:29:00,
2013-03-26 21:34:00,31.6,11.1,29.75,NW,308,0.0,0.0,42,0.00,CLR,,0.00,WeatherDisplay:10.37,2013-03-27 01:34:00,
2013-03-26 21:39:00,30.6,10.2,29.75,NW,308,0.0,0.0,42,0.00,CLR,,0.00,WeatherDisplay:10.37,2013-03-27 01:39:00,
2013-03-26 21:44:00,31.4,10.9,29.75,NW,308,0.0,0.0,42,0.00,CLR,,0.00,WeatherDisplay:10.37,2013-03-27 01:44:00,
2013-03-26 21:49:00,30.7,10.3,29.75,NW,308,1.1,0.0,42,0.00,CLR,,0.00,WeatherDisplay:10.37,2013-03-27 01:49:00,
2013-03-26 21:54:00,30.3,9.9,29.75,NW,308,0.0,0.0,42,0.00,CLR,,0.00,WeatherDisplay:10.37,2013-03-27 01:54:00,
2013-03-26 21:59:00,30.4,10.0,29.75,NW,308,0.0,0.0,42,0.00,CLR,,0.00,WeatherDisplay:10.37,2013-03-27 01:59:00,
2013-03-26 22:04:00,30.8,13.9,29.77,NW,308,0.0,0.0,49,0.00,CLR,,0.00,WeatherDisplay:10.37,2013-03-27 02:04:00,
2013-03-26 22:09:00,30.7,13.8,29.77,NW,308,0.0,0.0,49,0.00,CLR,,0.00,WeatherDisplay:10.37,2013-03-27 02:09:00,
2013-03-26 22:14:00,31.0,14.0,29.77,NW,308,0.0,0.0,49,0.00,CLR,,0.00,WeatherDisplay:10.37,2013-03-27 02:14:00,
2013-03-26 22:19:00,30.4,13.5,29.77,NW,308,0.0,0.0,49,0.00,CLR,,0.00,WeatherDisplay:10.37,2013-03-27 02:19:00,
2013-03-26 22:24:00,29.6,12.8,29.77,NW,308,0.0,0.0,49,0.00,CLR,,0.00,WeatherDisplay:10.37,2013-03-27 02:24:00,
2013-03-26 22:29:00,29.3,12.5,29.77,NW,308,1.0,0.0,49,0.00,CLR,,0.00,WeatherDisplay:10.37,2013-03-27 02:29:00,
2013-03-26 22:34:00,30.4,13.5,29.77,NW,308,0.0,0.0,49,0.00,CLR,,0.00,WeatherDisplay:10.37,2013-03-27 02:34:00,
2013-03-26 22:39:00,30.0,13.1,29.77,NW,308,0.0,0.0,49,0.00,CLR,,0.00,WeatherDisplay:10.37,2013-03-27 02:39:00,
2013-03-26 22:44:00,28.9,12.1,29.77,NW,308,0.0,0.0,49,0.00,CLR,,0.00,WeatherDisplay:10.37,2013-03-27 02:44:00,
2013-03-26 22:49:00,29.2,12.4,29.77,NW,308,0.0,0.0,49,0.00,CLR,,0.00,WeatherDisplay:10.37,2013-03-27 02:49:00,
2013-03-26 22:54:00,28.3,11.6,29.77,NW,308,0.0,0.0,49,0.00,CLR,,0.00,WeatherDisplay:10.37,2013-03-27 02:54:00,
2013-03-26 22:59:00,27.9,11.2,29.77,NW,308,0.0,0.0,49,0.00,CLR,,0.00,WeatherDisplay:10.37,2013-03-27 02:59:00,
2013-03-26 23:04:00,28.4,13.4,29.77,NW,308,0.0,0.0,53,0.00,CLR,,0.00,WeatherDisplay:10.37,2013-03-27 03:04:00,
2013-03-26 23:09:00,29.0,14.0,29.77,NW,308,0.0,0.0,53,0.00,CLR,,0.00,WeatherDisplay:10.37,2013-03-27 03:09:00,
2013-03-26 23:14:00,29.6,14.5,29.77,NW,308,0.0,0.0,53,0.00,CLR,,0.00,WeatherDisplay:10.37,2013-03-27 03:14:00,
2013-03-26 23:19:00,28.7,13.7,29.77,NW,308,0.0,0.0,53,0.00,CLR,,0.00,WeatherDisplay:10.37,2013-03-27 03:19:00,
2013-03-26 23:24:00,28.3,13.3,29.77,NW,308,0.0,0.0,53,0.00,CLR,,0.00,WeatherDisplay:10.37,2013-03-27 03:24:00,
2013-03-26 23:29:00,29.1,14.1,29.77,NW,308,0.0,0.0,53,0.00,CLR,,0.00,WeatherDisplay:10.37,2013-03-27 03:29:00,
2013-03-26 23:34:00,29.4,14.4,29.77,NW,308,0.0,0.0,53,0.00,CLR,,0.00,WeatherDisplay:10.37,2013-03-27 03:34:00,
2013-03-26 23:39:00,30.1,15.0,29.77,NW,308,0.0,0.0,53,0.00,CLR,,0.00,WeatherDisplay:10.37,2013-03-27 03:39:00,
2013-03-26 23:44:00,31.2,16.0,29.77,NW,308,0.0,0.0,53,0.00,CLR,,0.00,WeatherDisplay:10.37,2013-03-27 03:44:00,
2013-03-26 23:49:00,30.2,15.1,29.77,NW,308,1.1,1.1,53,0.00,CLR,,0.00,WeatherDisplay:10.37,2013-03-27 03:49:00,
2013-03-26 23:54:00,31.2,16.0,29.77,NW,308,0.0,0.0,53,0.00,CLR,,0.00,WeatherDisplay:10.37,2013-03-27 03:54:00,
2013-03-26 23:59:00,30.1,15.0,29.77,NW,308,0.0,0.0,53,0.00,CLR,,0.00,WeatherDisplay:10.37,2013-03-27 03:59:00,